Regional Weather Roundup
Issued by NWS Burlington, VT

Home | Current Version | Previous Version | Text Only | Print | Product List | Glossary On
Versions: 1 2 3 4 5 6 7 8 9 10 11 12 13 14 15 16 17 18 19 20 21 22 23 24 25 26 27 28 29 30 31 32 33 34 35 36 37 38 39 40 41 42 43 44 45 46 47 48 49 50
000
ASUS41 KBTV 180430
RWRBTV
VERMONT REGIONAL WEATHER ROUNDUP
NATIONAL WEATHER SERVICE BURLINGTON VT
1200 AM EDT SAT APR 18 2015

NOTE: "FAIR" INDICATES FEW OR NO CLOUDS BELOW 12,000 FEET WITH NO
SIGNIFICANT WEATHER AND/OR OBSTRUCTIONS TO VISIBILITY.

* THESE REPORTS ARE NOT UNDER NWS QUALITY CONTROL AND/OR DO NOT
  REPORT WEATHER SUCH AS PRECIPITATION AND FOG.

VTZ001>019-180500-
_____VERMONT_____


CITY           SKY/WX    TMP DP  RH WIND       PRES   REMARKS
BURLINGTON     MOCLDY    48  37  65 S3        29.91R
MONTPELIER     MOCLDY    47  36  65 CALM      29.94R
MORRISVILLE    CLOUDY    50  39  66 CALM      29.92R
ST. JOHNSBURY*   N/A     43  37  79 MISG      29.88R
LYNDONVILLE*     N/A     43  34  69 CALM      29.91R
MIDDLEBURY*    CLOUDY    48  39  71 CALM      29.92S
RUTLAND*       CLEAR     45  39  81 SE9       29.94R
SPRINGFIELD    CLEAR     41  38  89 CALM      29.93R
HIGHGATE*      MOCLDY    51  31  46 N7        29.92S
NEWPORT*         N/A     45  32  60 N8        29.93R
BENNINGTON     CLEAR     44  41  89 S3        29.97R
MT. MANSFIELD*   N/A     39 N/A N/A CALM        N/A

_____LAKE CHAMPLAIN_____


CITY           SKY/WX    TMP DP  RH WIND       PRES   REMARKS
BURTON ISLAND*   N/A     54  39  58 N1          N/A
COLCHESTER RF*   N/A     55  41  58 NW13        N/A
DIAMOND ISL*     N/A     59  41  51 W12         N/A

$$

NYZ007-026>031-035-052-083-180500-
_____NORTHERN NEW YORK_____


CITY           SKY/WX    TMP DP  RH WIND       PRES   REMARKS
PLATTSBURGH    MOCLDY    57  41  55 W7        29.91R
SARANAC LAKE   CLEAR     36  34  92 CALM      29.92R
MASSENA        CLOUDY    50  44  80 NW3       29.95R
OGDENSBURG*    PTCLDY    45  43  93 CALM      29.94S FOG
POTSDAM*       MOCLDY    46  46 100 CALM      29.95R
WATERTOWN      CLEAR     43  40  89 CALM      29.96R
FT DRUM        CLEAR     50  43  78 SW7       29.95R
ALBANY         CLEAR     50  44  80 SE5       29.97R
GLENS FALLS    CLEAR     57  41  55 NW12      29.94R

$$
NHZ002-005-011-180500-
_____NEW HAMPSHIRE_____


CITY           SKY/WX    TMP DP  RH WIND       PRES   REMARKS
LEBANON        CLEAR     40  36  86 CALM      29.90R
KEENE          CLEAR     45  43  93 CALM      29.95R
MT WASHINGTON  FOG       32  32 100 NW58        N/A  VSB 1/16
PLYMOUTH         N/A     40  40 100 CALM      29.90R
WHITEFIELD     MOCLDY    38  35  89 CALM      29.88R

$$

_____REGIONAL QUEBEC LOCATIONS_____


CITY           SKY/WX    TMP DP  RH WIND       PRES   REMARKS
MONTREAL       PTCLDY    52  25  35 N14       29.94R
QUEBEC CITY    CLEAR     41  27  56 NE5       29.94R
SHERBROOKE     CLEAR     43  23  45 W5        29.91R

_____REGIONAL ONTARIO LOCATIONS_____


CITY           SKY/WX    TMP DP  RH WIND       PRES   REMARKS
OTTAWA         PTCLDY    48  28  46 NE5       29.95R

______KEY______
VSB  - VISIBILITY IN MILES
WCI  - WIND CHILL INDEX
HX   - HEAT INDEX
$$
NNNN



USA.gov is the U.S. government's official web portal to all federal, state and local government web resources and services.